LRI2811 VILH-VQPR

Flight info

Callsign LRI2811
Flight time N/A
Altitude 35000
Route 33N079E/K0874S1070 33N083E 29N087E/N0475F350 DCT VEHX DCT BOGOP DCT TAKTI DCT PRO
Aircraft B738/M-SDE2E3FGHIRWXY/LB1

Departure

Time N/A
Airport Leh Kushok Bakula Rimpochee Airport (VILH)

Arrival

Time 2025-09-05 17:36
Airport Paro International Airport (VQPR)
Time Latitude Longitude Altitude Speed Heading
2025-09-05 16:49 27.45860 88.55055 23493 ft 432 kts 137°
2025-09-05 16:49 27.43594 88.57291 23504 ft 436 kts 137°
2025-09-05 16:49 27.39010 88.61809 23350 ft 433 kts 137°
2025-09-05 16:50 27.34494 88.66250 23379 ft 433 kts 138°
2025-09-05 16:50 27.29922 88.70740 23556 ft 438 kts 138°
2025-09-05 16:51 27.25334 88.75253 23363 ft 434 kts 138°
2025-09-05 16:52 27.18515 88.81942 23251 ft 436 kts 138°
2025-09-05 16:52 27.13967 88.86383 23236 ft 434 kts 138°
2025-09-05 16:53 27.09402 88.90842 23169 ft 433 kts 138°
2025-09-05 16:53 27.07113 88.93077 23201 ft 434 kts 138°
2025-09-05 16:53 27.02558 88.97528 23122 ft 434 kts 138°
2025-09-05 16:54 26.98013 89.01969 23033 ft 433 kts 138°
2025-09-05 16:54 26.93467 89.06393 23009 ft 433 kts 138°
2025-09-05 16:55 26.88879 89.10854 22978 ft 433 kts 138°
2025-09-05 16:56 26.82079 89.17462 22916 ft 432 kts 138°
2025-09-05 16:56 26.77521 89.21884 22898 ft 433 kts 138°
2025-09-05 16:56 26.75231 89.24103 22879 ft 432 kts 138°
2025-09-05 16:57 26.70672 89.28518 22854 ft 432 kts 138°
2025-09-05 16:57 26.66227 89.33008 22862 ft 433 kts 133°
2025-09-05 16:58 26.62920 89.38554 22854 ft 430 kts 112°
2025-09-05 16:58 26.61388 89.44991 22844 ft 430 kts 98°
2025-09-05 16:59 26.61551 89.51583 22844 ft 430 kts 78°
2025-09-05 17:00 26.65022 89.60821 22864 ft 433 kts 57°
2025-09-05 17:00 26.69362 89.65451 22849 ft 434 kts 33°
2025-09-05 17:00 26.72042 89.67019 22878 ft 436 kts 25°
2025-09-05 17:01 26.77740 89.69268 22610 ft 429 kts 11°
2025-09-05 17:02 26.86436 89.68391 21383 ft 425 kts 345°
2025-09-05 17:02 26.89223 89.67312 20761 ft 432 kts 337°
2025-09-05 17:02 26.94282 89.63703 19440 ft 431 kts 322°
2025-09-05 17:03 26.98277 89.58863 18356 ft 416 kts 305°
2025-09-05 17:04 27.04135 89.52279 16382 ft 387 kts 335°
2025-09-05 17:04 27.06605 89.51420 16032 ft 370 kts 352°
2025-09-05 17:04 27.11542 89.50954 15319 ft 340 kts 355°
2025-09-05 17:05 27.18207 89.50513 14637 ft 298 kts 359°
2025-09-05 17:05 27.20237 89.50492 14434 ft 285 kts 360°
2025-09-05 17:06 27.24042 89.50491 14043 ft 260 kts 359°
2025-09-05 17:06 27.27526 89.50494 13832 ft 245 kts 359°
2025-09-05 17:07 27.30725 89.49406 13621 ft 240 kts 312°
2025-09-05 17:08 27.34112 89.45888 12209 ft 231 kts 349°
2025-09-05 17:08 27.35662 89.45435 11670 ft 229 kts 336°
2025-09-05 17:08 27.38168 89.43205 11132 ft 243 kts 328°
2025-09-05 17:09 27.41050 89.42008 12199 ft 227 kts 330°
2025-09-05 17:09 27.43817 89.40147 11580 ft 228 kts 328°
2025-09-05 17:10 27.46367 89.38441 11571 ft 208 kts 328°
2025-09-05 17:10 27.48838 89.36790 12989 ft 202 kts 328°
2025-09-05 17:11 27.51256 89.35194 14282 ft 204 kts 328°
2025-09-05 17:11 27.53670 89.33569 15503 ft 206 kts 328°
2025-09-05 17:12 27.57592 89.31044 16520 ft 225 kts 346°
2025-09-05 17:12 27.59102 89.30776 16535 ft 219 kts 355°
2025-09-05 17:13 27.62116 89.30537 16617 ft 216 kts
2025-09-05 17:13 27.64533 89.32284 16586 ft 214 kts 71°
2025-09-05 17:14 27.63097 89.36628 16560 ft 209 kts 132°
2025-09-05 17:14 27.61947 89.37595 16571 ft 204 kts 155°
2025-09-05 17:15 27.59261 89.38808 16556 ft 211 kts 159°
2025-09-05 17:15 27.56538 89.39974 16502 ft 207 kts 159°
2025-09-05 17:16 27.53810 89.41144 16459 ft 210 kts 159°
2025-09-05 17:16 27.51069 89.42313 16421 ft 211 kts 159°
2025-09-05 17:17 27.48337 89.43478 16412 ft 210 kts 159°
2025-09-05 17:17 27.45624 89.44639 16459 ft 206 kts 159°
2025-09-05 17:18 27.42877 89.45813 16421 ft 210 kts 159°
2025-09-05 17:18 27.40147 89.46973 16315 ft 211 kts 159°
2025-09-05 17:19 27.37380 89.48142 16165 ft 212 kts 158°
2025-09-05 17:20 27.33222 89.49893 16133 ft 215 kts 159°
2025-09-05 17:20 27.32283 89.50263 16081 ft 213 kts 165°
2025-09-05 17:20 27.28884 89.50588 16042 ft 212 kts 186°
2025-09-05 17:21 27.25987 89.50212 16205 ft 209 kts 176°
2025-09-05 17:21 27.22939 89.50292 16062 ft 215 kts 179°
2025-09-05 17:22 27.19984 89.50323 15978 ft 214 kts 178°
2025-09-05 17:22 27.16997 89.50378 15824 ft 211 kts 178°
2025-09-05 17:23 27.14037 89.50425 15901 ft 216 kts 179°
2025-09-05 17:23 27.11021 89.50457 15815 ft 214 kts 179°
2025-09-05 17:24 27.08031 89.50478 15791 ft 214 kts 179°
2025-09-05 17:24 27.05044 89.50488 15759 ft 214 kts 179°
2025-09-05 17:25 27.02053 89.50487 15823 ft 217 kts 179°
2025-09-05 17:26 26.97552 89.50492 15727 ft 212 kts 179°
2025-09-05 17:26 26.96077 89.50494 15686 ft 213 kts 179°
2025-09-05 17:26 26.93075 89.50497 15669 ft 215 kts 179°
2025-09-05 17:27 26.90093 89.50527 15635 ft 214 kts 170°
2025-09-05 17:27 26.87987 89.52892 15220 ft 259 kts 97°
2025-09-05 17:28 26.91061 89.57387 14090 ft 260 kts 15°
2025-09-05 17:28 26.92846 89.57365 13729 ft 256 kts 340°
2025-09-05 17:29 26.95830 89.55293 12876 ft 253 kts 323°
2025-09-05 17:29 26.98710 89.53049 12290 ft 251 kts 327°
2025-09-05 17:30 27.01825 89.51669 11474 ft 231 kts 351°
2025-09-05 17:30 27.04846 89.51728 10763 ft 211 kts 355°
2025-09-05 17:31 27.07596 89.51469 10327 ft 181 kts 355°
2025-09-05 17:31 27.10170 89.51606 10368 ft 194 kts 12°
2025-09-05 17:32 27.14032 89.52761 9498 ft 193 kts 13°
2025-09-05 17:33 27.16621 89.53516 8554 ft 190 kts 14°
2025-09-05 17:33 27.17880 89.53773 8280 ft 177 kts
2025-09-05 17:33 27.19266 89.54163 7904 ft 0 kts 22°
2025-09-05 17:34 27.39792 89.42539 10393 ft 141 kts 47°
2025-09-05 17:35 27.39973 89.42884 9843 ft 172 kts 73°
2025-09-05 17:36 27.39685 89.42764 7600 ft 0 kts 182°
2025-09-05 17:36 27.40308 89.42452 7618 ft 0 kts 182°
2025-09-05 17:43 27.40532 89.42165 7639 ft 0 kts 240°